www.pogodaiklimat.ru

АРХИВ ПОГОДЫ в Джероме

Время (UTC), дата Ветер
(напр.,м/с)
 
Видим.   Явления Облачность Т
(С)
Тd
(С)
f
(%)
Тe
(С)
Тes
(С)
Комфортность

P
(гПа)

Po
(гПа)
Тmin
(С)
Tmax
(С)
R
(мм)
SD
(см)
00:53 27.09 ЮЗ  16 км    ясно  +17.0  -2.0  27  +17  +17    1021.0  880.9  +11.7  +21.7     
01:53 27.09 Ю  16 км    ясно  +15.6  -2.2  29  +15  +15    1020.6  880.9  +11.7  +21.7     
02:53 27.09 Ю  16 км    ясно  +14.0  -2.0  33  +13  +13    1020.5  880.9  +11.7  +21.7     
03:53 27.09 Ю  16 км    ясно  +13.0  -2.0  35  +12  +12    1020.3  880.9  +11.7  +21.7     
04:53 27.09 Ю  16 км    ясно  +12.2  -2.2  37  +11  +11    1020.1  880.9  +11.7  +21.7     
05:53 27.09 Ю  16 км    ясно  +11.7  -2.8  36  +10  +10    1019.8  880.6  +7.8  +12.2     
06:53 27.09 Ю  16 км    ясно  +12.0  -3.0  35  +11  +11    1019.6  880.6  +7.8  +12.2     
07:53 27.09 ЮВ  16 км    ясно  +11.1  -3.9  35  +10  +10    1019.2  880.6  +7.8  +12.2     
08:53 27.09 В  16 км    ясно  +9.0  -3.0  43  +7  +7    1019.1  880.3  +7.8  +12.2     
09:53 27.09 ЮВ  16 км    ясно  +9.0  -4.0  40  +7  +7    1019.1  880.3  +7.8  +12.2     
10:53 27.09 штиль  16 км    ясно  +9.4  -4.4  37  +9  +9    1019.1  880.3  +7.8  +12.2     
11:53 27.09 ЮВ  16 км    ясно  +9.0  -5.0  37  +8  +8    1019.3  880.3  +6.7  +18.9     
13:53 27.09 С  16 км    ясно  +12.2  -3.3  34  +11  +11    1019.7  880.6  +6.7  +18.9     
14:53 27.09 ЮЗ  16 км    ясно  +16.0  -4.0  25  +17  +17    1019.4  880.6  +6.7  +18.9     
15:53 27.09 Ю  16 км    ясно  +17.0  -3.0  25  +17  +18    1019.2  880.3  +6.7  +18.9     
16:53 27.09 ЮЗ  16 км    ясно  +18.9  -3.3  22  +19  +21    1018.7  880.0  +6.7  +18.9     
17:53 27.09 ЮЗ  16 км    ясно  +21.0  -4.0  18  +21  +23  комфорт  1017.7  879.2  +18.9  +26.7     
18:53 27.09 ЮЗ  16 км    ясно  +23.0  -4.0  16  +21  +24  комфорт  1016.8  878.6  +18.9  +26.7     
19:53 27.09 ЮЗ  6
{10} 
16 км    ясно  +25.0  -6.1  12  +23  +24  комфорт  1015.5  878.0  +18.9  +26.7     
20:53 27.09 З  16 км    ясно  +27.0  -7.0  10  +24  +25  комфорт  1014.5  876.8  +18.9  +26.7     
21:53 27.09 З  16 км    ясно  +27.0  -7.0  10  +24  +24  комфорт  1013.5  876.2  +18.9  +26.7     
22:53 27.09 З  16 км    ясно  +26.1  -5.6  12  +23  +24  комфорт  1013.0  875.7  +18.9  +26.7     
23:53 27.09 ЮЗ  16 км    ясно  +24.0  -4.0  15  +22  +23  комфорт  1012.7  875.1  +15.0  +26.1     
00:53 28.09 ЮЗ  16 км    ясно  +21.0  -3.0  20  +21  +21  комфорт  1013.1  875.1  +15.0  +26.1     
01:53 28.09 ЮЗ  16 км  слабый дождь  ясно  +18.9  -3.9  21  +19  +19    1012.9  875.1  +15.0  +26.1     
02:53 28.09 ЮЗ  16 км  слабый дождь  ясно  +17.0  -3.0  25  +16  +16    1012.6  875.1  +15.0  +26.1     
03:53 28.09 Ю  16 км  слабый дождь, дымка  ясно  +16.0  -2.0  29  +16  +16    1013.0  875.4  +15.0  +26.1     
04:53 28.09 ЮВ  16 км  слабый дождь, дымка  ясно  +15.6  -2.8  28  +15  +15    1012.9  875.4  +15.0  +26.1     
05:53 28.09 Ю  16 км  слабый дождь, дымка  ясно  +15.0  -3.9  27  +15  +15    1012.7  875.4  +10.0  +16.7     
06:53 28.09 ЮВ  16 км  слабый дождь, дымка  ясно  +13.0  -4.0  30  +12  +12    1012.8  875.7  +10.0  +16.7     
07:53 28.09 ЮВ  16 км    ясно  +15.6  -4.4  25  +16  +16    1012.2  875.4  +10.0  +16.7     
08:53 28.09 штиль  16 км    ясно  +16.0  -4.0  25  +16  +16    1011.9  875.4  +10.0  +16.7     
09:53 28.09 ЮВ  16 км    ясно  +14.0  -5.0  26  +14  +14    1012.1  875.4  +10.0  +16.7     
10:53 28.09 ЮВ  16 км    ясно  +11.7  -3.9  33  +11  +11    1012.4  875.4  +10.0  +16.7     
11:53 28.09 В  16 км    ясно  +11.0  -4.0  35  +9  +9    1012.7  875.4  +8.9  +22.8     
12:53 28.09 В  16 км    ясно  +10.0  -2.0  43  +8  +8    1013.4  875.7  +8.9  +22.8     
13:53 28.09 СВ  16 км    ясно  +14.4  -1.7  33  +14  +14    1013.5  875.9  +8.9  +22.8     
14:53 28.09 В  16 км    ясно  +18.0  -3.0  24  +19  +19    1013.0  875.7  +8.9  +22.8     
15:53 28.09 штиль  16 км    ясно  +21.0  -3.0  20  +20  +23    1012.9  875.7  +8.9  +22.8     
16:53 28.09 С  16 км    ясно  +22.8  -2.8  18  +21  +24  комфорт  1012.0  875.1  +8.9  +22.8     
17:53 28.09 нст  16 км    ясно  +25.0  -2.0  17  +23  +28  комфорт  1011.0  874.5  +22.8  +28.3     
18:53 28.09 З  16 км    ясно  +27.0  -2.0  15  +25  +29  комфорт  1010.0  873.6  +22.8  +28.3     
19:53 28.09 СЗ  16 км    ясно  +27.8  -3.3  13  +25  +28  комфорт  1008.5  872.7  +22.8  +28.3     
20:53 28.09 ЮЗ  16 км    ясно  +27.0  -3.0  14  +24  +28  комфорт  1007.8  871.9  +22.8  +28.3     
21:53 28.09 З  16 км    ясно  +27.0  -1.0  16  +25  +27  комфорт  1007.4  871.6  +22.8  +28.3     
22:53 28.09 ЮЗ  16 км    ясно  +25.0  +0.6  20  +24  +25  комфорт  1007.4  871.0  +22.8  +28.3     
23:53 28.09 Ю  16 км    ясно  +23.0  +2.0  25  +22  +23  комфорт  1007.5  871.0  +14.4  +25.0     
00:53 29.09 ЮЗ  16 км    ясно  +21.0  +1.0  26  +22  +22  комфорт  1008.1  871.0  +14.4  +25.0     

 

Местоположение метеостанции Jerome County Airport: широта 42.7267 долгота -114.4572 высота над уровнем моря 1234 м.

В архиве по умолчанию представлена погода в Джероме за последние 1-2 суток. Обновление информации о фактической погоде в базе происходит ежечасно! Архивные данные за месяц целиком и за предыдущие месяцы Вы можете получить, выбрав интересующий диапазон дат из раскрывающегося списка и нажав кнопку "Ввод!".

Внимание! Архив погоды МЕТАР в базе сайта в настоящее время начинается c 1 января 2013 г. Нет смысла пытаться выбрать более раннюю дату.

Внимание! Время в таблицах - всемирное. Для получения местного времени необходимо прибавить поправку, которая в Джероме равна -7 ч.

Ветер - указаны скорость ветра в м/с и направление, откуда дует ветер: С - северный, СВ - северо-восточный, В - восточный, ЮВ - юго-восточный, Ю - южный, ЮЗ - юго-западный, З - западный, СЗ - северо-западный.
Видимость - горизонтальная дальность видимости в метрах или километрах. При видимости от 1 до 10 км при отсутствии осадков обычно наблюдается дымка, при ухудшении видимости до 1 км и менее - туман. В сухую погоду видимость может ухудшаться дымом, пылью или мглою.
Атмосферные явления - указаны явления, наблюдавшиеся в указанный момент времени.
Облачность - указаны через наклонную черту верхняя и нижняя облачность в баллах и высота нижней границы облаков в метрах. Внимание: облачность, как и прочие метеорологические величины в США измеряются автоматическими метеостанциями. Указанные значения в баллах носят условный характер и показывают процент времени, в течение которого, в среднем, лазерный луч высотомера отражался от облаков обратно.
T - Температура воздуха - температура, измеренная на высоте 2 м над землей.
Td - Температура точки росы - температура, при понижении до которой содержащийся в воздухе водяной пар достигнет насыщения.
f - Относительная влажность воздуха - влажноcть воздуха, измеренная на высоте 2 м над землей.
Te - Эффективная температура - температура, которую ощущает одетый по сезону человек в тени. Характеристика душности погоды. При расчете учитывается влияние влажности воздуха и скорости ветра на теплоощущения человека.
Tes - Эффективная температура на солнце - температура, которую ощущает человек, с поправкой на солнечный нагрев. Характеристика знойности погоды. Зависит от высоты солнца над горизонтом, облачности и скорости ветра. Ночью, в пасмурную погоду, а также при ветре 12 м/с и более поправка равна нулю.
P - Атмосферное давление - приведенное к уровню моря атмосферное давление.
Po - Атмосферное давление - измеренное на уровне метеостанции атмосферное давление.
Tmin - Минимальная температура - минимум температуры воздуха на высоте 2 м над землей.
Tmax - Максимальная температура - максимум температуры воздуха на высоте 2 м над землей.
R - Количество осадков - Количество выпавших осадков за 3 или 6 часов, мм.
SD - Снежный покров - Высота снежного покрова, см.